Warning: Javascript must be enabled to use all the features on this page!


Page Loading - Please Wait...

Click to hideNews Bulletins

Streamflow Measurements for the Nation


USGS 11455338 SACRAMENTO R DEEP WATER SHIP CHANNEL MARKER 51 CA


Solano County, California
Hydrologic Unit Code 18020163
Latitude  38°14'14.61", Longitude 121°40'26.24" NAD83
Gage datum 2 feet above NAVD88
Output formats
HTML table with channel data
HTML table without channel data
Tab-separated data with channel data
Tab-separated data without channel data
Graph of data
Reselect output format
Meas.
Number
  Date       Time Time
Datum
Measurement
Used?
  Who Measuring
Agency
Stream
flow
(ft3/s)
Gage
Height
(ft)
GH
Change
(ft)
Meas.
Duration
(hr)
Meas.
Rated
  Control Flow
Adjust.
Code
 
2412022-08-18 11:37:43PSTYesBGRIFFIT/ACOUSGS159005.45 Poor NONE
2402022-08-18 11:31:58PSTYesBGRIFFIT/ACOUSGS160005.51 Poor NONE
2392022-08-18 11:26:32PSTYesBGRIFFIT/ACOUSGS151005.56 Poor NONE
2382022-08-18 11:20:57PSTYesBGRIFFIT/ACOUSGS150005.60 Poor NONE
2372022-08-18 11:04:57PSTYesBGRIFFIT/ACOUSGS132005.74 Poor NONE
2362022-08-18 10:59:44PSTYesBGRIFFIT/ACOUSGS125005.78 Poor NONE
2282022-04-12 10:15:55PSTYesHFUJIWARA/BGUSGS-198004.68 Poor NONE
2292022-04-12 10:12:49PSTYesHFUJIWARA/BGUSGS-199004.71 Poor NONE
2272022-04-12 10:08:27PSTYesHFUJIWARA/BGUSGS-190004.64 Poor NONE
2262022-04-12 10:02:57PSTYesHFUJIWARA/BGUSGS-182004.59 Poor NONE
2252022-04-12 09:57:45PSTYesHFUJIWARA/BGUSGS-178004.54 Poor NONE
2242022-04-12 09:53:35PSTYesHFUJIWARA/BGUSGS-170004.54 Poor NONE
2232022-02-09 13:31:24PSTYesEDuber/BGRIFUSGS196005.37 Poor NONE
2222022-02-09 13:24:15PSTYesEDuber/BGRIFUSGS188005.45 Poor NONE
2212022-02-09 12:33:54PSTYesEDuber/BGRIFUSGS148005.96 Poor NONE
2202022-02-09 12:26:38PSTYesEDuber/BGRIFUSGS138006.04 Poor NONE
2192022-02-09 12:19:20PSTYesEDuber/BGRIFUSGS129006.11 Poor NONE
2182022-02-09 12:11:52PSTYesEDuber/BGRIFUSGS118006.19 Poor NONE
2172021-12-14 13:59:03PSTYesJEHATFIELD/BUSGS51707.58 Poor NONE
2162021-12-14 13:54:44PSTYesJEHATFIELD/BUSGS41107.61 Poor NONE
2152021-12-14 13:50:39PSTYesJEHATFIELD/BUSGS34507.63 Poor NONE
2142021-12-14 13:46:14PSTYesJEHATFIELD/BUSGS27407.65 Poor NONE
2132021-12-14 13:42:04PSTYesJEHATFIELD/BUSGS17207.66 Poor NONE
2122021-12-14 13:38:07PSTYesJEHATFIELD/BUSGS9827.67 Poor NONE
2112021-10-20 12:48:15PSTYesJEHATFIELD/BUSGS-278005.29 Poor NONE
2102021-10-20 12:41:48PSTYesJEHATFIELD/BUSGS-258005.20 Poor NONE
2092021-10-20 12:16:38PSTYesJEHATFIELD/BUSGS-226004.89 Poor NONE
2082021-10-20 12:11:12PSTYesJEHATFIELD/BUSGS-214004.83 Poor NONE
2072021-10-20 12:03:16PSTYesJEHATFIELD/BUSGS-200004.70 Poor NONE
2062021-10-20 11:48:46PSTYesJEHATFIELD/BUSGS-168004.50 Poor NONE
2052021-09-01 13:48:44PSTYesBGRIFFIT/ACOUSGS-90.96.71 Poor NONE
2042021-09-01 13:43:56PSTYesBGRIFFIT/ACOUSGS-8246.69 Poor NONE
2032021-09-01 13:40:28PSTYesBGRIFFIT/ACOUSGS-14406.69 Poor NONE
2022021-09-01 13:35:40PSTYesBGRIFFIT/ACOUSGS-20906.67 Poor NONE
2012021-09-01 13:24:44PSTYesBGRIFFIT/ACOUSGS-35906.63 Poor NONE
2002021-09-01 13:19:53PSTYesBGRIFFIT/ACOUSGS-41006.62 Poor NONE
1992021-09-01 12:58:21PSTYesBGRIFFIT/ACOUSGS-81706.51 Poor NONE
1982021-09-01 12:52:50PSTYesBGRIFFIT/ACOUSGS-84506.50 Poor NONE
1972021-09-01 12:38:20PSTYesBGRIFFIT/ACOUSGS-114006.41 Poor NONE
1962021-09-01 12:33:57PSTYesBGRIFFIT/ACOUSGS-123006.39 Poor NONE
1952021-09-01 12:19:11PSTYesBGRIFFIT/ACOUSGS-148006.29 Poor NONE
1942021-09-01 12:14:34PSTYesBGRIFFIT/ACOUSGS-160006.27 Poor NONE
1932021-09-01 11:58:13PSTYesBGRIFFIT/ACOUSGS-194006.15 Poor NONE
1922021-09-01 11:53:16PSTYesBGRIFFIT/ACOUSGS-204006.11 Poor NONE
1912021-09-01 11:36:07PSTYesBGRIFFIT/ACOUSGS-227005.97 Poor NONE
1902021-09-01 11:29:35PSTYesBGRIFFIT/ACOUSGS-239005.92 Poor NONE
1892021-08-06 09:55:42PSTYesBGRIFFIT/ACOUSGS117002.93 Poor NONE
1882021-08-06 09:50:11PSTYesBGRIFFIT/ACOUSGS119002.95 Poor NONE
1872021-08-06 09:45:07PSTYesBGRIFFIT/ACOUSGS121002.99 Poor NONE
1862021-08-06 09:39:31PSTYesBGRIFFIT/ACOUSGS123003.02 Poor NONE
1852021-08-06 09:34:14PSTYesBGRIFFIT/ACOUSGS124003.06 Poor NONE
1842021-08-06 09:28:40PSTYesBGRIFFIT/ACOUSGS125003.10 Poor NONE
1832021-08-06 09:23:51PSTYesBGRIFFIT/ACOUSGS127003.13 Poor NONE
1822021-08-06 09:18:19PSTYesBGRIFFIT/ACOUSGS127003.17 Poor NONE
1812021-08-06 09:12:48PSTYesBGRIFFIT/ACOUSGS127003.21 Poor NONE
1802021-08-06 09:06:17PSTYesBGRIFFIT/ACOUSGS127003.27 Poor NONE
1792021-08-06 09:00:40PSTYesBGRIFFIT/ACOUSGS126003.31 Poor NONE
1782021-08-06 08:54:36PSTYesBGRIFFIT/ACOUSGS127003.37 Poor NONE
1772021-08-06 08:49:53PSTYesBGRIFFIT/ACOUSGS128003.41 Poor NONE
1762021-08-06 08:44:52PSTYesBGRIFFIT/ACOUSGS128003.45 Poor NONE
1752021-08-06 08:40:21PSTYesBGRIFFIT/ACOUSGS131003.50 Poor NONE
1742021-08-06 08:35:21PSTYesBGRIFFIT/ACOUSGS128003.54 Poor NONE
1732021-08-06 08:30:43PSTYesBGRIFFIT/ACOUSGS125003.59 Poor NONE
1722021-08-06 08:26:12PSTYesBGRIFFIT/ACOUSGS129003.62 Poor NONE
1712021-08-06 08:21:42PSTYesBGRIFFIT/ACOUSGS128003.66 Poor NONE
1702021-08-06 08:16:34PSTYesBGRIFFIT/ACOUSGS130003.72 Poor NONE
1692021-08-06 08:11:54PSTYesBGRIFFIT/ACOUSGS131003.76 Poor NONE
1682021-08-06 08:06:34PSTYesBGRIFFIT/ACOUSGS130003.81 Poor NONE
1672021-08-06 08:02:07PSTYesBGRIFFIT/ACOUSGS134003.86 Poor NONE
1662021-08-06 07:57:04PSTYesBGRIFFIT/ACOUSGS132003.91 Poor NONE
1652021-08-06 07:52:26PSTYesBGRIFFIT/ACOUSGS135003.96 Poor NONE
1642021-08-06 07:47:30PSTYesBGRIFFIT/ACOUSGS134004.01 Poor NONE
1632021-08-06 07:42:45PSTYesBGRIFFIT/ACOUSGS136004.05 Poor NONE
1622021-08-06 07:37:14PSTYesBGRIFFIT/ACOUSGS136004.11 Poor NONE
1612021-08-06 07:32:07PSTYesBGRIFFIT/ACOUSGS141004.171.17 Poor NONE
1602021-08-06 07:26:24PSTYesBGRIFFIT/ACOUSGS143004.22 Poor NONE
1592021-08-06 07:21:25PSTYesBGRIFFIT/ACOUSGS145004.27 Poor NONE
1582021-08-06 07:15:22PSTYesBGRIFFIT/ACOUSGS143004.33 Poor NONE
1572021-08-06 07:10:09PSTYesBGRIFFIT/ACOUSGS149004.40 Poor NONE
1562021-08-06 07:04:50PSTYesBGRIFFIT/ACOUSGS152004.44 Poor NONE
1552021-08-02 13:22:56PSTYesBGRIFFIT/ACOUSGS29005.85 Poor NONE
1542021-08-02 13:18:12PSTYesBGRIFFIT/ACOUSGS19105.86 Poor NONE
1532021-08-02 13:11:33PSTYesBGRIFFIT/ACOUSGS5675.86 Poor NONE
1522021-08-02 13:07:12PSTYesBGRIFFIT/ACOUSGS-2935.86 Poor NONE
1512021-08-02 13:02:39PSTYesBGRIFFIT/ACOUSGS-15805.85 Poor NONE
1502021-08-02 12:56:08PSTYesBGRIFFIT/ACOUSGS-28005.84 Poor NONE
1492021-08-02 12:51:18PSTYesBGRIFFIT/ACOUSGS-35705.84 Poor NONE
1482021-08-02 12:46:17PSTYesBGRIFFIT/ACOUSGS-48105.83 Poor NONE
1472021-08-02 12:41:14PSTYesBGRIFFIT/ACOUSGS-57805.82 Poor NONE
1462021-08-02 12:36:22PSTYesBGRIFFIT/ACOUSGS-67205.80 Poor NONE
1452021-08-02 12:31:13PSTYesBGRIFFIT/ACOUSGS-77705.79 Poor NONE
1442021-08-02 12:25:51PSTYesBGRIFFIT/ACOUSGS-87305.77 Poor NONE
1432021-08-02 12:20:18PSTYesBGRIFFIT/ACOUSGS-102005.75 Poor NONE
1422021-08-02 12:14:30PSTYesBGRIFFIT/ACOUSGS-118005.72 Poor NONE
1412021-08-02 12:06:07PSTYesBGRIFFIT/ACOUSGS-133005.69 Poor NONE
1402021-08-02 12:01:02PSTYesBGRIFFIT/ACOUSGS-141005.66 Poor NONE
1392021-08-02 11:56:14PSTYesBGRIFFIT/ACOUSGS-151005.64 Poor NONE
1382021-08-02 11:51:20PSTYesBGRIFFIT/ACOUSGS-162005.61 Poor NONE
1372021-08-02 11:39:07PSTYesBGRIFFIT/ACOUSGS-186005.54 Poor NONE
1362021-08-02 11:34:16PSTYesBGRIFFIT/ACOUSGS-192005.51 Poor NONE
1352021-08-02 11:29:01PSTYesBGRIFFIT/ACOUSGS-198005.47 Poor NONE
1342021-08-02 11:23:48PSTYesBGRIFFIT/ACOUSGS-208005.44 Poor NONE
1332021-08-02 11:18:03PSTYesBGRIFFIT/ACOUSGS-222005.40 Poor NONE
1322021-08-02 11:12:17PSTYesBGRIFFIT/ACOUSGS-229005.37 Poor NONE
1312021-08-02 11:06:25PSTYesBGRIFFIT/ACOUSGS-235005.33 Poor NONE
1302021-08-02 11:00:44PSTYesBGRIFFIT/ACOUSGS-238005.29 Poor NONE
1292021-08-02 10:55:06PSTYesBGRIFFIT/ACOUSGS-238005.24 Poor NONE
1282021-08-02 10:48:57PSTYesBGRIFFIT/ACOUSGS-237005.20 Poor NONE
1272021-08-02 10:43:08PSTYesBGRIFFIT/ACOUSGS-246005.15 Poor NONE
1262021-08-02 10:38:04PSTYesBGRIFFIT/ACOUSGS-249005.11 Poor NONE
1252021-08-02 10:32:11PSTYesBGRIFFIT/ACOUSGS-241005.06 Poor NONE
1242021-08-02 10:26:20PSTYesBGRIFFIT/ACOUSGS-243005.01 Poor NONE
1232021-08-02 10:18:04PSTYesBGRIFFIT/ACOUSGS-237004.95 Poor NONE
1222021-08-02 10:11:02PSTYesBGRIFFIT/ACOUSGS-225004.89 Poor NONE
1212021-08-02 10:03:34PSTYesBGRIFFIT/ACOUSGS-224004.82 Poor NONE
1202021-08-02 09:57:06PSTYesBGRIFFIT/ACOUSGS-215004.76 Poor NONE
1192021-08-02 09:51:14PSTYesBGRIFFIT/ACOUSGS-208004.71 Poor NONE
1182021-08-02 09:45:37PSTYesBGRIFFIT/ACOUSGS-203004.66 Poor NONE
1172021-08-02 09:40:02PSTYesBGRIFFIT/ACOUSGS-195004.60 Poor NONE
1162021-08-02 09:34:31PSTYesBGRIFFIT/ACOUSGS-190004.54 Poor NONE
1152021-08-02 09:28:43PSTYesBGRIFFIT/ACOUSGS-175004.47 Poor NONE
1142021-08-02 09:22:01PSTYesBGRIFFIT/ACOUSGS-159004.40 Poor NONE
1132021-07-27 12:08:27PSTYesEDUBER/JEHATUSGS136003.49 Poor NONE
1122021-07-27 12:04:53PSTYesEDUBER/JEHATUSGS153003.53 Poor NONE
1112021-07-27 12:01:46PSTYesEDUBER/JEHATUSGS137003.56 Poor NONE
1102021-07-27 11:57:56PSTYesEDUBER/JEHATUSGS145003.60 Poor NONE
1092021-07-27 11:54:29PSTYesEDUBER/JEHATUSGS139003.75 Poor NONE
1082021-07-27 11:50:51PSTYesEDUBER/JEHATUSGS147003.96 Poor NONE
1072021-06-16 11:35:25PSTYesACONLEN/BGRIUSGS191004.15 Poor NONE
1062021-06-16 11:21:24PSTYesACONLEN/BGRIUSGS200004.28 Poor NONE
1052021-06-16 11:17:09PSTYesACONLEN/BGRIUSGS197004.33 Poor NONE
1042021-06-16 11:12:02PSTYesACONLEN/BGRIUSGS20000 Poor NONE
1032021-06-16 11:06:39PSTYesACONLEN/BGRIUSGS204004.43 Poor NONE
1022021-06-16 11:01:37PSTYesACONLEN/BGRIUSGS210004.50 Poor NONE
1012021-04-12 10:38:48PSTYesAConlen/EDubUSGS125003.43 Poor NONE
1002021-04-12 10:34:35PSTYesAConlen/EDubUSGS125003.46 Poor NONE
992021-04-12 10:29:35PSTYesAConlen/EDubUSGS131003.50 Poor NONE
982021-04-12 10:25:51PSTYesAConlen/EDubUSGS131003.53 Poor NONE
972021-04-12 10:20:42PSTYesAConlen/EDubUSGS134003.57 Poor NONE
962021-04-12 10:17:12PSTYesAConlen/EDubUSGS133003.60 Poor NONE
952021-04-07 09:23:53PSTYesBGRIFFIT,ACOUSGS-145004.75 Poor NONE
942021-04-07 09:17:38PSTYesBGRIFFIT,ACOUSGS-133004.67 Poor NONE
932021-04-07 09:11:04PSTYesBGRIFFIT,ACOUSGS-112004.60 Poor NONE
922021-04-07 09:04:27PSTYesBGRIFFIT,ACOUSGS-101004.53 Poor NONE
912021-04-07 08:54:53PSTYesBGRIFFIT,ACOUSGS-74604.44 Poor NONE
902021-04-07 08:48:13PSTYesBGRIFFIT,ACOUSGS-58304.38 Poor NONE
892021-02-22 13:29:58PSTYesACONLEN,BGRIUSGS97806.10 Poor NONE
882021-02-22 13:25:46PSTYesACONLEN,BGRIUSGS93706.13 Poor NONE
872021-02-22 13:21:29PSTYesACONLEN,BGRIUSGS86006.16 Poor NONE
862021-02-22 13:17:10PSTYesACONLEN,BGRIUSGS80606.19 Poor NONE
852021-02-22 13:12:42PSTYesACONLEN,BGRIUSGS73206.23 Poor NONE
842021-02-22 13:08:25PSTYesACONLEN,BGRIUSGS63806.24 Poor NONE
832021-02-22 13:03:24PSTYesACONLEN,BGRIUSGS54906.27 Poor NONE
822021-02-22 12:58:42PSTYesACONLEN,BGRIUSGS46106.30 Poor NONE
812021-02-22 12:53:53PSTYesACONLEN,BGRIUSGS37306.32 Poor NONE
802021-02-22 12:49:13PSTYesACONLEN,BGRIUSGS27806.33 Poor NONE
792021-02-22 12:44:32PSTYesACONLEN,BGRIUSGS15406.35 Poor NONE
782021-02-22 12:39:58PSTYesACONLEN,BGRIUSGS9306.36 Poor NONE
772021-02-22 12:34:56PSTYesACONLEN,BGRIUSGS-29.26.36 Poor NONE
762021-02-22 12:30:30PSTYesACONLEN,BGRIUSGS-8836.36 Poor NONE
752021-02-22 12:25:22PSTYesACONLEN,BGRIUSGS-20506.37 Poor NONE
742021-02-22 12:20:48PSTYesACONLEN,BGRIUSGS-23606.38 Poor NONE
732021-02-22 12:16:10PSTYesACONLEN,BGRIUSGS-31506.37 Poor NONE
722021-02-22 12:10:48PSTYesACONLEN,BGRIUSGS-39706.37 Poor NONE
712021-02-22 12:06:02PSTYesACONLEN,BGRIUSGS-50906.36 Poor NONE
702021-02-22 12:01:17PSTYesACONLEN,BGRIUSGS-54406.34 Poor NONE
692021-02-22 11:55:19PSTYesACONLEN,BGRIUSGS-62506.32 Poor NONE
682021-02-22 11:50:01PSTYesACONLEN,BGRIUSGS-66006.31 Poor NONE
672021-02-22 11:44:43PSTYesACONLEN,BGRIUSGS-78306.29 Poor NONE
662021-02-22 11:39:39PSTYesACONLEN,BGRIUSGS-84706.28 Poor NONE
652021-02-22 10:49:28PSTYesACONLEN,BGRIUSGS-151006.01 Poor NONE
642021-02-22 10:44:35PSTYesACONLEN,BGRIUSGS-152005.97 Poor NONE
632021-02-19 13:58:12PSTYesACONLEN, BGRUSGS169003.95 Poor NONE
622021-02-19 13:53:39PSTYesACONLEN, BGRUSGS174004.00 Poor NONE
612021-02-19 13:48:59PSTYesACONLEN, BGRUSGS171004.05 Poor NONE
602021-02-19 13:44:13PSTYesACONLEN, BGRUSGS174004.09 Poor NONE
592021-02-19 13:39:27PSTYesACONLEN, BGRUSGS175004.14 Poor NONE
582021-02-19 13:34:43PSTYesACONLEN, BGRUSGS177004.18 Poor NONE
572021-02-19 13:29:45PSTYesACONLEN, BGRUSGS178004.24 Poor NONE
562021-02-19 13:24:49PSTYesACONLEN, BGRUSGS175004.28 Poor NONE
552021-02-19 13:19:51PSTYesACONLEN, BGRUSGS177004.33 Poor NONE
542021-02-19 13:04:06PSTYesACONLEN, BGRUSGS183004.49 Poor NONE
532021-02-19 12:58:51PSTYesACONLEN, BGRUSGS183004.55 Poor NONE
522021-02-19 12:53:43PSTYesACONLEN, BGRUSGS181004.59 Poor NONE
512021-02-19 12:47:22PSTYesACONLEN, BGRUSGS178004.65 Poor NONE
502021-02-19 12:41:42PSTYesACONLEN, BGRUSGS180004.71 Poor NONE
492021-02-19 12:35:45PSTYesACONLEN, BGRUSGS177004.78 Poor NONE
482021-02-19 12:29:10PSTYesACONLEN, BGRUSGS178004.84 Poor NONE
472021-02-19 12:24:18PSTYesACONLEN, BGRUSGS176004.88 Poor NONE
462021-02-19 12:19:43PSTYesACONLEN, BGRUSGS172004.92 Poor NONE
452021-02-19 12:11:33PSTYesACONLEN, BGRUSGS166005.01 Poor NONE
442021-02-19 12:06:51PSTYesACONLEN, BGRUSGS165005.05 Poor NONE
432021-02-19 12:02:14PSTYesACONLEN, BGRUSGS161005.10 Poor NONE
422021-02-19 11:57:29PSTYesACONLEN, BGRUSGS158005.15 Poor NONE
412021-02-19 11:52:46PSTYesACONLEN, BGRUSGS154005.20 Poor NONE
402021-02-19 11:48:06PSTYesACONLEN, BGRUSGS149005.24 Poor NONE
392021-02-19 11:43:25PSTYesACONLEN, BGRUSGS147005.28 Poor NONE
382021-02-19 11:38:27PSTYesACONLEN, BGRUSGS145005.33 Poor NONE
372021-02-19 11:33:03PSTYesACONLEN, BGRUSGS137005.39 Poor NONE
362021-02-19 11:27:49PSTYesACONLEN, BGRUSGS131005.45 Poor NONE
352021-02-19 11:22:18PSTYesACONLEN, BGRUSGS126005.50 Poor NONE
342021-02-19 11:16:55PSTYesACONLEN, BGRUSGS120005.55 Poor NONE
332021-02-19 11:12PSTYesACONLEN, BGRUSGS113005.59 Poor NONE
322021-02-19 11:06:29PSTYesACONLEN, BGRUSGS109005.65 Poor NONE
312021-02-19 11:00:29PSTYesACONLEN, BGRUSGS98005.70 Poor NONE
302021-02-19 10:54:24PSTYesACONLEN, BGRUSGS88905.74 Poor NONE
292021-02-19 10:49:15PSTYesACONLEN, BGRUSGS84205.78 Poor NONE
282021-02-19 10:43:02PSTYesACONLEN, BGRUSGS78505.83 Poor NONE
272021-01-28 13:12:17PSTYesAC, BGUSGS-261006.78 Poor NONE
262021-01-28 13:06:28PSTYesAC, BGUSGS-275006.71 Poor NONE
252021-01-28 13:00:30PSTYesAC, BGUSGS-278006.65 Poor NONE
242021-01-28 12:54:51PSTYesAC, BGUSGS-282006.58 Poor NONE
232021-01-28 12:49:40PSTYesAC, BGUSGS-277006.52 Poor NONE
222021-01-28 12:44:04PSTYesAC, BGUSGS-260006.46 Poor NONE
212020-11-18 15:26:01PSTYesBG, ACUSGS-261006.49 Poor NONE
202020-11-18 15:19:24PSTYesBG, ACUSGS-256006.42 Poor NONE
192020-11-18 15:14:17PSTYesBG, ACUSGS-266006.36 Poor NONE
182020-11-18 15:07:26PSTYesBG, ACUSGS-257006.28 Poor NONE
172020-11-18 15:02:09PSTYesBG, ACUSGS-252006.23 Poor NONE
162020-11-18 14:58:02PSTYesBG, ACUSGS-246006.17 Poor NONE
152020-11-18 14:52:17PSTYesBG, ACUSGS-246006.11 Poor NONE
142020-11-18 14:47:19PSTYesBG, ACUSGS-235006.06 Poor NONE
132020-11-18 14:28:29PSTYesBG, ACUSGS-217005.87 Poor NONE
122020-11-18 14:22:20PSTYesBG, ACUSGS-203005.80 Poor NONE
112020-11-18 14:16:37PSTYesBG, ACUSGS-192005.73 Poor NONE
102020-11-18 14:12:11PSTYesBG, ACUSGS-183005.68 Poor NONE
92020-11-18 14:07:10PSTYesBG, ACUSGS-174005.63 Poor NONE
82020-11-18 13:44:54PSTYesBG, ACUSGS-117005.40 Poor NONE
72020-11-18 13:40:23PSTYesBG, ACUSGS-108005.35 Poor NONE
62020-11-18 13:35:39PSTYesBG, ACUSGS-93405.31 Poor NONE
52020-11-18 13:30:18PSTYesBG, ACUSGS-82305.26 Poor NONE
42020-11-18 13:25:15PSTYesBG, ACUSGS-67405.22 Poor NONE
32020-11-18 13:19:39PSTYesBG, ACUSGS-51805.17 Poor NONE
22020-11-18 13:15:22PSTYesBG, ACUSGS-38505.14 Poor NONE
12020-11-18 13:09:49PSTYesBG, ACUSGS-26305.11 Poor NONE